This demonstration page uses our WeatherBlox Daily Observations layout. Learn more.

Left ArrowRight Arrow

Hourly Observations for August 5, 2017

Temp ( °F °C ) Dew Point ( °F °C ) Humidity (%) Winds ( mph kmh ) Pressure ( in mb ) Visibility ( mi km ) Precip ( " mm )
12:51 am 00:51 Mostly Clear 77 25 66 18.9 69 69 S 5 7 29.83 1010 10 16.0934 0 0.0254
1:51 am 01:51 Clear 75 23.9 66 18.9 74 74 Calm 29.84 1010 10 16.0934 0 0
2:51 am 02:51 Partly Cloudy 74 23.3 67 19.4 79 79 Calm 29.84 1011 10 16.0934 0 0
3:51 am 03:51 Clear 74 23.3 64 17.8 71 71 N 5 7 29.84 1011 10 16.0934 0 0
4:51 am 04:51 Clear 73 22.8 66 18.9 79 79 SSW 5 7 29.85 1011 10 16.0934 0 0
5:51 am 05:51 Sunny 71 21.7 65 18.3 81 81 Calm 29.87 1011 10 16.0934 0 0
6:51 am 06:51 Sunny 77 25 65 18.3 66 66 N 3 6 29.87 1012 10 16.0934 0 0
7:51 am 07:51 Sunny 79 26.1 64 17.8 60 60 SW 5 7 29.88 1012 10 16.0934 0 0
8:51 am 08:51 Sunny 84 28.9 63 17.2 49 49 WNW 10 17 29.87 1012 10 16.0934 0 0
9:51 am 09:51 Sunny 87 30.6 63 17.2 45 45 WNW 12 19 29.86 1011 10 16.0934 0 0
10:51 am 10:51 Sunny 89 31.7 61 16.1 39 39 W 9 15 29.85 1011 10 16.0934 0 0
11:51 am 11:51 Sunny 91 32.8 60 15.6 35 35 W 13 20 29.83 1010 10 16.0934 0 0
12:51 pm 12:51 Sunny 94 34.4 56 13.3 28 28 WNW 18 30 29.8 1009 10 16.0934 0 0
1:51 pm 13:51 Sunny 95 35 55 12.8 26 26 WNW 16 26 29.77 1008 10 16.0934 0 0
2:51 pm 14:51 Partly Cloudy 96 35.6 55 12.8 25 25 WNW 20 31 29.75 1008 10 16.0934 0 0
3:51 pm 15:51 Sunny 95 35 50 10 22 22 W 18 30 29.74 1007 10 16.0934 0 0
4:51 pm 16:51 Sunny 95 35 47 8.3 19 19 WNW 16 26 29.72 1007 10 16.0934 0 0
5:51 pm 17:51 Sunny 93 33.9 49 9.4 22 22 WNW 17 28 29.72 1007 10 16.0934 0 0
6:51 pm 18:51 Sunny 90 32.2 49 9.4 24 24 WNW 16 26 29.74 1007 10 16.0934 0 0
7:51 pm 19:51 Clear 87 30.6 48 8.9 26 26 WNW 10 17 29.75 1008 10 16.0934 0 0
8:51 pm 20:51 Clear 80 26.7 50 10 35 35 NW 8 13 29.78 1008 10 16.0934 0 0
9:51 pm 21:51 Clear 79 26.1 50 10 36 36 NW 8 13 29.79 1009 10 16.0934 0 0.0254
10:51 pm 22:51 Clear 76 24.4 52 11.1 43 43 NW 8 13 29.79 1009 10 16.0934 0 0
11:51 pm 23:51 Clear 77 25 51 10.6 40 40 WNW 8 13 29.79 1009 10 16.0934 0 0

Powered by AerisWeather